AAL1022 KPWM-KBUF

Flight info

Callsign AAL1022
Flight time 1h 33m
Altitude 22000
Route HSKEL3 HSKEL DCT BAUER DCT JOGIM DCT GACKE DCT CORNA
Aircraft DH8D/M-SDE2E3FGRY/H

Departure

Time 2026-05-09 00:30
Airport Portland International Jetport (KPWM)

Arrival

Time 2026-05-09 02:04
Airport Buffalo Niagara International Airport (KBUF)
Time Latitude Longitude Altitude Speed Heading
2026-05-09 00:07 43.64673 -70.31061 64 ft 0 kts
2026-05-09 00:20 43.64666 -70.31062 63 ft 2 kts
2026-05-09 00:20 43.64652 -70.31062 64 ft 2 kts
2026-05-09 00:20 43.64637 -70.31065 64 ft 2 kts 14°
2026-05-09 00:20 43.64623 -70.31072 64 ft 2 kts 32°
2026-05-09 00:21 43.64611 -70.31085 64 ft 2 kts 49°
2026-05-09 00:21 43.64603 -70.31102 64 ft 2 kts 66°
2026-05-09 00:21 43.64599 -70.31122 65 ft 2 kts 83°
2026-05-09 00:21 43.64599 -70.31139 65 ft 1 kts 96°
2026-05-09 00:22 43.64599 -70.31140 65 ft 0 kts 96°
2026-05-09 00:24 43.64598 -70.31128 65 ft 5 kts 96°
2026-05-09 00:24 43.64593 -70.31058 63 ft 8 kts 95°
2026-05-09 00:25 43.64587 -70.30974 62 ft 9 kts 96°
2026-05-09 00:25 43.64582 -70.30883 60 ft 9 kts 95°
2026-05-09 00:25 43.64575 -70.30783 57 ft 11 kts 96°
2026-05-09 00:25 43.64566 -70.30666 52 ft 13 kts 96°
2026-05-09 00:26 43.64557 -70.30541 50 ft 13 kts 95°
2026-05-09 00:26 43.64561 -70.30414 46 ft 13 kts 75°
2026-05-09 00:26 43.64585 -70.30286 41 ft 14 kts 84°
2026-05-09 00:26 43.64581 -70.30148 37 ft 14 kts 96°
2026-05-09 00:27 43.64570 -70.30006 33 ft 13 kts 96°
2026-05-09 00:27 43.64533 -70.29924 30 ft 6 kts 165°
2026-05-09 00:27 43.64512 -70.29919 30 ft 0 kts 176°
2026-05-09 00:28 43.64486 -70.29917 30 ft 7 kts 177°
2026-05-09 00:29 43.64440 -70.29918 31 ft 5 kts 192°
2026-05-09 00:29 43.64417 -70.29942 32 ft 3 kts 239°
2026-05-09 00:29 43.64413 -70.29954 33 ft 2 kts 251°
2026-05-09 00:29 43.64425 -70.30214 41 ft 65 kts 275°
2026-05-09 00:30 43.64487 -70.31156 66 ft 128 kts 275°
2026-05-09 00:30 43.64580 -70.32549 141 ft 158 kts 276°
2026-05-09 00:30 43.64702 -70.34090 611 ft 159 kts 278°
2026-05-09 00:30 43.64849 -70.35528 1325 ft 146 kts 281°
2026-05-09 00:31 43.64961 -70.36731 2171 ft 121 kts 280°
2026-05-09 00:31 43.65069 -70.37802 2792 ft 106 kts 285°
2026-05-09 00:31 43.65191 -70.38770 3193 ft 104 kts 284°
2026-05-09 00:31 43.65295 -70.39683 3633 ft 92 kts 285°
2026-05-09 00:32 43.65400 -70.40586 3730 ft 102 kts 284°
2026-05-09 00:32 43.65531 -70.41582 3805 ft 104 kts 284°
2026-05-09 00:32 43.65645 -70.42541 3948 ft 102 kts 281°
2026-05-09 00:32 43.65686 -70.43541 4011 ft 105 kts 276°
2026-05-09 00:33 43.65696 -70.44537 4154 ft 104 kts 277°
2026-05-09 00:33 43.65716 -70.45519 4543 ft 100 kts 277°
2026-05-09 00:33 43.65736 -70.46481 4928 ft 102 kts 277°
2026-05-09 00:33 43.65751 -70.47445 5329 ft 101 kts 276°
2026-05-09 00:34 43.65760 -70.48400 5721 ft 100 kts 276°
2026-05-09 00:34 43.65768 -70.49346 6091 ft 101 kts 276°
2026-05-09 00:34 43.65772 -70.50313 6473 ft 101 kts 275°
2026-05-09 00:34 43.65775 -70.51262 6851 ft 101 kts 275°
2026-05-09 00:35 43.65777 -70.52232 7230 ft 101 kts 275°
2026-05-09 00:35 43.65778 -70.53191 7585 ft 101 kts 275°
2026-05-09 00:35 43.65778 -70.54157 7880 ft 107 kts 273°
2026-05-09 00:35 43.65770 -70.55310 8012 ft 132 kts 271°
2026-05-09 00:36 43.65744 -70.56634 8358 ft 142 kts 270°
2026-05-09 00:36 43.65717 -70.58016 8814 ft 147 kts 271°
2026-05-09 00:36 43.65695 -70.59425 9301 ft 149 kts 271°
2026-05-09 00:36 43.65677 -70.60839 9812 ft 150 kts 271°
2026-05-09 00:37 43.65662 -70.62277 10333 ft 150 kts 271°
2026-05-09 00:37 43.65649 -70.63691 10841 ft 150 kts 271°
2026-05-09 00:37 43.65640 -70.65131 11347 ft 151 kts 271°
2026-05-09 00:37 43.65631 -70.66564 11859 ft 151 kts 272°
2026-05-09 00:38 43.65624 -70.68000 12368 ft 151 kts 272°
2026-05-09 00:38 43.65617 -70.69454 12853 ft 152 kts 272°
2026-05-09 00:38 43.65611 -70.70911 13339 ft 153 kts 273°
2026-05-09 00:38 43.65606 -70.72366 13816 ft 153 kts 273°
2026-05-09 00:39 43.65600 -70.73808 14289 ft 153 kts 273°
2026-05-09 00:39 43.65594 -70.75278 14776 ft 153 kts 273°
2026-05-09 00:39 43.65589 -70.76719 15258 ft 152 kts 273°
2026-05-09 00:39 43.65583 -70.78156 15745 ft 151 kts 273°
2026-05-09 00:40 43.65577 -70.79596 16234 ft 149 kts 273°
2026-05-09 00:40 43.65572 -70.81000 16713 ft 147 kts 273°
2026-05-09 00:40 43.65566 -70.82393 17190 ft 145 kts 273°
2026-05-09 00:41 43.65557 -70.85135 18052 ft 144 kts 274°
2026-05-09 00:41 43.65553 -70.86510 18432 ft 146 kts 273°
2026-05-09 00:41 43.65548 -70.87908 18862 ft 145 kts 273°
2026-05-09 00:41 43.65542 -70.89276 19246 ft 146 kts 274°
2026-05-09 00:42 43.65536 -70.90674 19635 ft 146 kts 274°
2026-05-09 00:42 43.65529 -70.92065 20033 ft 146 kts 274°
2026-05-09 00:42 43.65522 -70.93459 20406 ft 148 kts 275°
2026-05-09 00:42 43.65515 -70.94904 20746 ft 153 kts 274°
2026-05-09 00:43 43.65506 -70.96394 21077 ft 158 kts 274°
2026-05-09 00:43 43.65496 -70.97917 21398 ft 164 kts 274°
2026-05-09 00:43 43.65483 -70.99532 21706 ft 171 kts 274°
2026-05-09 00:43 43.65469 -71.01224 21830 ft 185 kts 273°
2026-05-09 00:44 43.65454 -71.03078 21887 ft 203 kts 273°
2026-05-09 00:44 43.65387 -71.05122 21911 ft 224 kts 266°
2026-05-09 00:44 43.65041 -71.07328 21924 ft 246 kts 261°
2026-05-09 00:44 43.64600 -71.09701 21905 ft 264 kts 261°
2026-05-09 00:45 43.64130 -71.12230 21911 ft 280 kts 260°
2026-05-09 00:45 43.63637 -71.14897 21926 ft 293 kts 260°
2026-05-09 00:45 43.63127 -71.17660 21911 ft 299 kts 260°
2026-05-09 00:45 43.62616 -71.20405 21891 ft 299 kts 260°
2026-05-09 00:46 43.62100 -71.23206 21891 ft 298 kts 260°
2026-05-09 00:46 43.61593 -71.25963 21900 ft 298 kts 260°
2026-05-09 00:46 43.61092 -71.28698 21901 ft 298 kts 260°
2026-05-09 00:46 43.60587 -71.31460 21903 ft 297 kts 261°
2026-05-09 00:47 43.60084 -71.34216 21913 ft 297 kts 261°
2026-05-09 00:47 43.59576 -71.36995 21905 ft 297 kts 261°
2026-05-09 00:47 43.59076 -71.39731 21913 ft 297 kts 260°
2026-05-09 00:47 43.58573 -71.42477 21918 ft 296 kts 261°
2026-05-09 00:48 43.58070 -71.45229 21919 ft 297 kts 261°
2026-05-09 00:48 43.57567 -71.47977 21917 ft 296 kts 260°
2026-05-09 00:48 43.57061 -71.50733 21925 ft 296 kts 261°
2026-05-09 00:48 43.56553 -71.53503 21919 ft 296 kts 260°
2026-05-09 00:49 43.56048 -71.56248 21922 ft 296 kts 260°
2026-05-09 00:49 43.55546 -71.58977 21920 ft 296 kts 261°
2026-05-09 00:49 43.55038 -71.61731 21931 ft 296 kts 261°
2026-05-09 00:49 43.54533 -71.64471 21916 ft 296 kts 260°
2026-05-09 00:50 43.54020 -71.67242 21908 ft 295 kts 259°
2026-05-09 00:50 43.53512 -71.69984 21914 ft 295 kts 260°
2026-05-09 00:50 43.53008 -71.72704 21916 ft 295 kts 260°
2026-05-09 00:50 43.52494 -71.75474 21911 ft 296 kts 260°
2026-05-09 00:51 43.51981 -71.78236 21902 ft 296 kts 260°
2026-05-09 00:51 43.51474 -71.80963 21901 ft 296 kts 260°
2026-05-09 00:51 43.50954 -71.83752 21913 ft 296 kts 260°
2026-05-09 00:51 43.50450 -71.86476 21907 ft 296 kts 260°
2026-05-09 00:52 43.49945 -71.89238 21909 ft 296 kts 260°
2026-05-09 00:52 43.49429 -71.91991 21893 ft 297 kts 258°
2026-05-09 00:52 43.48470 -71.94536 21913 ft 305 kts 240°
2026-05-09 00:52 43.47412 -71.97015 21867 ft 295 kts 258°
2026-05-09 00:53 43.47092 -71.99746 21911 ft 290 kts 266°
2026-05-09 00:53 43.46799 -72.02506 21916 ft 291 kts 264°
2026-05-09 00:53 43.46449 -72.05256 21909 ft 292 kts 263°
2026-05-09 00:53 43.46055 -72.08003 21901 ft 292 kts 262°
2026-05-09 00:54 43.45626 -72.10756 21916 ft 292 kts 262°
2026-05-09 00:54 43.45172 -72.13513 21922 ft 293 kts 262°
2026-05-09 00:54 43.44707 -72.16221 21916 ft 293 kts 261°
2026-05-09 00:54 43.44224 -72.18956 21913 ft 293 kts 261°
2026-05-09 00:55 43.43733 -72.21680 21916 ft 293 kts 261°
2026-05-09 00:55 43.43229 -72.24426 21922 ft 293 kts 260°
2026-05-09 00:55 43.42727 -72.27135 21913 ft 293 kts 260°
2026-05-09 00:55 43.42211 -72.29892 21925 ft 293 kts 260°
2026-05-09 00:56 43.41701 -72.32597 21938 ft 292 kts 260°
2026-05-09 00:56 43.41186 -72.35319 21939 ft 293 kts 260°
2026-05-09 00:56 43.40788 -72.38049 21931 ft 290 kts 268°
2026-05-09 00:56 43.40692 -72.40803 21931 ft 288 kts 271°
2026-05-09 00:57 43.40633 -72.43583 21935 ft 288 kts 271°
2026-05-09 00:57 43.40575 -72.46353 21933 ft 288 kts 271°
2026-05-09 00:57 43.40516 -72.49125 21937 ft 288 kts 271°
2026-05-09 00:57 43.40454 -72.51883 21939 ft 288 kts 271°
2026-05-09 00:58 43.40391 -72.54615 21936 ft 287 kts 271°
2026-05-09 00:58 43.40328 -72.57363 21937 ft 287 kts 271°
2026-05-09 00:58 43.40263 -72.60120 21937 ft 287 kts 271°
2026-05-09 00:58 43.40197 -72.62868 21947 ft 287 kts 271°
2026-05-09 00:59 43.40129 -72.65647 21939 ft 288 kts 271°
2026-05-09 00:59 43.40061 -72.68413 21942 ft 290 kts 270°
2026-05-09 00:59 43.39993 -72.71183 21920 ft 290 kts 270°
2026-05-09 00:59 43.39922 -72.73962 21910 ft 290 kts 270°
2026-05-09 01:00 43.39851 -72.76733 21919 ft 290 kts 270°
2026-05-09 01:00 43.39779 -72.79527 21927 ft 290 kts 271°
2026-05-09 01:00 43.39706 -72.82331 21919 ft 291 kts 270°
2026-05-09 01:00 43.39634 -72.85091 21921 ft 290 kts 271°
2026-05-09 01:01 43.39559 -72.87874 21924 ft 290 kts 271°
2026-05-09 01:01 43.39484 -72.90659 21921 ft 290 kts 271°
2026-05-09 01:01 43.39410 -72.93430 21919 ft 290 kts 271°
2026-05-09 01:01 43.39334 -72.96206 21919 ft 290 kts 271°
2026-05-09 01:02 43.39257 -72.98994 21926 ft 290 kts 271°
2026-05-09 01:02 43.39180 -73.01766 21922 ft 290 kts 270°
2026-05-09 01:02 43.39102 -73.04549 21925 ft 290 kts 270°
2026-05-09 01:02 43.39023 -73.07336 21926 ft 290 kts 270°
2026-05-09 01:03 43.38943 -73.10139 21931 ft 290 kts 270°
2026-05-09 01:03 43.38863 -73.12919 21927 ft 290 kts 270°
2026-05-09 01:03 43.38782 -73.15697 21930 ft 290 kts 271°
2026-05-09 01:03 43.38701 -73.18470 21930 ft 290 kts 270°
2026-05-09 01:04 43.38619 -73.21255 21932 ft 290 kts 270°
2026-05-09 01:04 43.38537 -73.24002 21931 ft 290 kts 271°
2026-05-09 01:04 43.38454 -73.26789 21936 ft 290 kts 270°
2026-05-09 01:04 43.38369 -73.29579 21937 ft 290 kts 270°
2026-05-09 01:05 43.38285 -73.32351 21940 ft 289 kts 270°
2026-05-09 01:05 43.38200 -73.35120 21944 ft 289 kts 270°
2026-05-09 01:05 43.38028 -73.40641 21944 ft 289 kts 270°
2026-05-09 01:06 43.37941 -73.43411 21945 ft 288 kts 270°
2026-05-09 01:06 43.37854 -73.46159 21941 ft 288 kts 270°
2026-05-09 01:06 43.37765 -73.48931 21943 ft 288 kts 270°
2026-05-09 01:06 43.37677 -73.51681 21943 ft 288 kts 270°
2026-05-09 01:07 43.37588 -73.54415 21941 ft 287 kts 270°
2026-05-09 01:07 43.37497 -73.57194 21949 ft 287 kts 270°
2026-05-09 01:07 43.37407 -73.59950 21947 ft 287 kts 270°
2026-05-09 01:07 43.37317 -73.62680 21942 ft 288 kts 270°
2026-05-09 01:08 43.37223 -73.65469 21941 ft 287 kts 270°
2026-05-09 01:08 43.37132 -73.68203 21944 ft 288 kts 270°
2026-05-09 01:08 43.37037 -73.70985 21946 ft 288 kts 270°
2026-05-09 01:08 43.36944 -73.73734 21942 ft 289 kts 270°
2026-05-09 01:09 43.36850 -73.76480 21940 ft 289 kts 270°
2026-05-09 01:09 43.36753 -73.79270 21937 ft 289 kts 270°
2026-05-09 01:09 43.36657 -73.82035 21933 ft 289 kts 270°
2026-05-09 01:09 43.36559 -73.84809 21925 ft 289 kts 270°
2026-05-09 01:10 43.36462 -73.87565 21917 ft 289 kts 270°
2026-05-09 01:10 43.36363 -73.90337 21915 ft 289 kts 270°
2026-05-09 01:10 43.36264 -73.93117 21910 ft 289 kts 270°
2026-05-09 01:10 43.36165 -73.95861 21911 ft 289 kts 270°
2026-05-09 01:11 43.36066 -73.98605 21909 ft 289 kts 270°
2026-05-09 01:11 43.35965 -74.01366 21908 ft 289 kts 270°
2026-05-09 01:11 43.35864 -74.04108 21911 ft 289 kts 270°
2026-05-09 01:11 43.35762 -74.06866 21907 ft 289 kts 270°
2026-05-09 01:12 43.35660 -74.09609 21904 ft 289 kts 270°
2026-05-09 01:12 43.35557 -74.12344 21911 ft 289 kts 270°
2026-05-09 01:12 43.35453 -74.15099 21911 ft 289 kts 270°
2026-05-09 01:12 43.35348 -74.17876 21912 ft 289 kts 270°
2026-05-09 01:13 43.35243 -74.20622 21912 ft 288 kts 270°
2026-05-09 01:13 43.35138 -74.23349 21913 ft 288 kts 270°
2026-05-09 01:13 43.35031 -74.26107 21910 ft 288 kts 269°
2026-05-09 01:13 43.34925 -74.28831 21918 ft 288 kts 270°
2026-05-09 01:14 43.34817 -74.31587 21917 ft 288 kts 269°
2026-05-09 01:14 43.34710 -74.34311 21918 ft 288 kts 270°
2026-05-09 01:14 43.34601 -74.37068 21916 ft 288 kts 270°
2026-05-09 01:14 43.34492 -74.39798 21923 ft 288 kts 269°
2026-05-09 01:15 43.34382 -74.42542 21911 ft 287 kts 270°
2026-05-09 01:15 43.34272 -74.45277 21922 ft 287 kts 270°
2026-05-09 01:15 43.34161 -74.47984 21921 ft 287 kts 270°
2026-05-09 01:15 43.34050 -74.50715 21918 ft 287 kts 270°
2026-05-09 01:16 43.33937 -74.53440 21919 ft 287 kts 270°
2026-05-09 01:16 43.33825 -74.56170 21921 ft 287 kts 270°
2026-05-09 01:16 43.33711 -74.58910 21924 ft 286 kts 270°
2026-05-09 01:17 43.33482 -74.64381 21913 ft 287 kts 270°
2026-05-09 01:17 43.33366 -74.67126 21911 ft 287 kts 269°
2026-05-09 01:17 43.33250 -74.69846 21915 ft 287 kts 269°
2026-05-09 01:17 43.33134 -74.72563 21917 ft 287 kts 269°
2026-05-09 01:18 43.33017 -74.75291 21908 ft 287 kts 269°
2026-05-09 01:18 43.32899 -74.78010 21918 ft 287 kts 269°
2026-05-09 01:18 43.32779 -74.80768 21915 ft 287 kts 269°
2026-05-09 01:18 43.32660 -74.83488 21914 ft 287 kts 269°
2026-05-09 01:19 43.32541 -74.86201 21918 ft 287 kts 269°
2026-05-09 01:19 43.32419 -74.88962 21919 ft 287 kts 269°
2026-05-09 01:19 43.32297 -74.91702 21919 ft 287 kts 269°
2026-05-09 01:19 43.32175 -74.94426 21922 ft 287 kts 269°
2026-05-09 01:20 43.32055 -74.97119 21925 ft 287 kts 269°
2026-05-09 01:20 43.31931 -74.99861 21926 ft 287 kts 269°
2026-05-09 01:20 43.31807 -75.02587 21925 ft 287 kts 269°
2026-05-09 01:20 43.31683 -75.05315 21929 ft 286 kts 269°
2026-05-09 01:21 43.31559 -75.08019 21935 ft 286 kts 269°
2026-05-09 01:21 43.31433 -75.10732 21939 ft 286 kts 269°
2026-05-09 01:21 43.31306 -75.13474 21942 ft 286 kts 269°
2026-05-09 01:21 43.31182 -75.16174 21945 ft 286 kts 269°
2026-05-09 01:22 43.31054 -75.18888 21942 ft 286 kts 269°
2026-05-09 01:22 43.30926 -75.21592 21944 ft 285 kts 269°
2026-05-09 01:22 43.30798 -75.24300 21947 ft 285 kts 269°
2026-05-09 01:22 43.30669 -75.27013 21948 ft 285 kts 269°
2026-05-09 01:23 43.30538 -75.29746 21940 ft 285 kts 269°
2026-05-09 01:23 43.30409 -75.32444 21947 ft 285 kts 269°
2026-05-09 01:23 43.30278 -75.35156 21944 ft 284 kts 269°
2026-05-09 01:23 43.30147 -75.37856 21953 ft 284 kts 269°
2026-05-09 01:24 43.30016 -75.40546 21941 ft 284 kts 269°
2026-05-09 01:24 43.29883 -75.43255 21947 ft 284 kts 269°
2026-05-09 01:24 43.29751 -75.45945 21948 ft 283 kts 269°
2026-05-09 01:24 43.29618 -75.48625 21957 ft 283 kts 269°
2026-05-09 01:25 43.29484 -75.51328 21942 ft 284 kts 269°
2026-05-09 01:25 43.29350 -75.54008 21948 ft 283 kts 269°
2026-05-09 01:25 43.29214 -75.56715 21949 ft 283 kts 269°
2026-05-09 01:25 43.29078 -75.59418 21942 ft 284 kts 269°
2026-05-09 01:26 43.28943 -75.62096 21941 ft 284 kts 269°
2026-05-09 01:26 43.28806 -75.64785 21945 ft 284 kts 269°
2026-05-09 01:26 43.28667 -75.67510 21934 ft 284 kts 269°
2026-05-09 01:26 43.28529 -75.70202 21931 ft 284 kts 268°
2026-05-09 01:27 43.28389 -75.72913 21936 ft 284 kts 268°
2026-05-09 01:27 43.28250 -75.75591 21937 ft 285 kts 269°
2026-05-09 01:27 43.28109 -75.78301 21943 ft 285 kts 269°
2026-05-09 01:27 43.27967 -75.81016 21946 ft 285 kts 268°
2026-05-09 01:28 43.27824 -75.83746 21940 ft 286 kts 269°
2026-05-09 01:28 43.27681 -75.86445 21918 ft 286 kts 268°
2026-05-09 01:28 43.27537 -75.89164 21930 ft 285 kts 269°
2026-05-09 01:28 43.27394 -75.91851 21935 ft 285 kts 269°
2026-05-09 01:29 43.27250 -75.94545 21935 ft 285 kts 269°
2026-05-09 01:29 43.27103 -75.97278 21933 ft 285 kts 268°
2026-05-09 01:29 43.26958 -75.99958 21939 ft 285 kts 269°
2026-05-09 01:29 43.26812 -76.02670 21948 ft 286 kts 268°
2026-05-09 01:30 43.26662 -76.05412 21932 ft 286 kts 269°
2026-05-09 01:30 43.26514 -76.08123 21926 ft 285 kts 269°
2026-05-09 01:30 43.26367 -76.10796 21936 ft 285 kts 269°
2026-05-09 01:30 43.26217 -76.13526 21933 ft 285 kts 268°
2026-05-09 01:31 43.26067 -76.16235 21930 ft 284 kts 269°
2026-05-09 01:31 43.25919 -76.18896 21926 ft 284 kts 269°
2026-05-09 01:31 43.25767 -76.21609 21935 ft 284 kts 269°
2026-05-09 01:31 43.25617 -76.24294 21941 ft 284 kts 269°
2026-05-09 01:32 43.25465 -76.26987 21937 ft 284 kts 268°
2026-05-09 01:32 43.25311 -76.29708 21936 ft 284 kts 268°
2026-05-09 01:32 43.25158 -76.32394 21937 ft 285 kts 269°
2026-05-09 01:32 43.25003 -76.35119 21937 ft 284 kts 268°
2026-05-09 01:33 43.24849 -76.37795 21934 ft 284 kts 269°
2026-05-09 01:33 43.24693 -76.40508 21947 ft 284 kts 269°
2026-05-09 01:33 43.24542 -76.43136 21935 ft 283 kts 269°
2026-05-09 01:33 43.24382 -76.45863 21947 ft 283 kts 269°
2026-05-09 01:34 43.24225 -76.48574 21941 ft 283 kts 268°
2026-05-09 01:34 43.24068 -76.51254 21942 ft 284 kts 268°
2026-05-09 01:34 43.23910 -76.53944 21931 ft 284 kts 268°
2026-05-09 01:34 43.23752 -76.56622 21928 ft 284 kts 268°
2026-05-09 01:35 43.23592 -76.59339 21870 ft 285 kts 268°
2026-05-09 01:35 43.23433 -76.61994 21795 ft 276 kts 268°
2026-05-09 01:35 43.23274 -76.64521 21742 ft 259 kts 268°
2026-05-09 01:35 43.23122 -76.66943 21636 ft 246 kts 268°
2026-05-09 01:36 43.22980 -76.69231 21348 ft 240 kts 268°
2026-05-09 01:36 43.22842 -76.71479 21163 ft 231 kts 268°
2026-05-09 01:36 43.22712 -76.73605 21000 ft 224 kts 268°
2026-05-09 01:36 43.22585 -76.75710 20841 ft 219 kts 268°
2026-05-09 01:37 43.22461 -76.77757 20679 ft 214 kts 269°
2026-05-09 01:37 43.22339 -76.79768 20517 ft 209 kts 268°
2026-05-09 01:37 43.22219 -76.81718 20374 ft 204 kts 268°
2026-05-09 01:37 43.22101 -76.83639 20234 ft 198 kts 268°
2026-05-09 01:38 43.21988 -76.85487 20095 ft 193 kts 268°
2026-05-09 01:38 43.21876 -76.87296 19949 ft 187 kts 268°
2026-05-09 01:38 43.21769 -76.89040 19807 ft 182 kts 269°
2026-05-09 01:38 43.21665 -76.90751 19677 ft 182 kts 269°
2026-05-09 01:39 43.21561 -76.92493 19551 ft 184 kts 269°
2026-05-09 01:39 43.21455 -76.94273 19416 ft 188 kts 269°
2026-05-09 01:39 43.21346 -76.96069 19288 ft 193 kts 269°
2026-05-09 01:39 43.21233 -76.97913 19165 ft 197 kts 269°
2026-05-09 01:40 43.21115 -76.99817 19048 ft 202 kts 268°
2026-05-09 01:40 43.20995 -77.01742 18930 ft 206 kts 268°
2026-05-09 01:40 43.20871 -77.03711 18814 ft 211 kts 268°
2026-05-09 01:40 43.20743 -77.05746 18694 ft 215 kts 268°
2026-05-09 01:41 43.20613 -77.07792 18576 ft 219 kts 268°
2026-05-09 01:41 43.20478 -77.09899 18456 ft 223 kts 268°
2026-05-09 01:41 43.20342 -77.12028 18338 ft 227 kts 268°
2026-05-09 01:41 43.20203 -77.14194 18218 ft 231 kts 268°
2026-05-09 01:42 43.20061 -77.16396 18092 ft 235 kts 268°
2026-05-09 01:42 43.19917 -77.18631 17964 ft 238 kts 268°
2026-05-09 01:42 43.19769 -77.20914 17840 ft 241 kts 268°
2026-05-09 01:42 43.19620 -77.23208 17714 ft 244 kts 268°
2026-05-09 01:43 43.19467 -77.25546 17589 ft 246 kts 268°
2026-05-09 01:43 43.19316 -77.27865 17462 ft 248 kts 268°
2026-05-09 01:43 43.19162 -77.30215 17337 ft 250 kts 267°
2026-05-09 01:43 43.19004 -77.32601 17200 ft 251 kts 267°
2026-05-09 01:44 43.18848 -77.34977 17071 ft 252 kts 267°
2026-05-09 01:44 43.18689 -77.37364 16972 ft 253 kts 267°
2026-05-09 01:44 43.18529 -77.39778 16840 ft 254 kts 267°
2026-05-09 01:44 43.18371 -77.42151 16716 ft 254 kts 267°
2026-05-09 01:45 43.18208 -77.44589 16608 ft 255 kts 267°
2026-05-09 01:45 43.18049 -77.46970 16476 ft 255 kts 267°
2026-05-09 01:45 43.17884 -77.49420 16321 ft 255 kts 267°
2026-05-09 01:45 43.17722 -77.51819 16136 ft 258 kts 267°
2026-05-09 01:46 43.17555 -77.54297 15881 ft 261 kts 267°
2026-05-09 01:46 43.17389 -77.56742 15706 ft 262 kts 267°
2026-05-09 01:46 43.17221 -77.59218 15530 ft 262 kts 267°
2026-05-09 01:46 43.17050 -77.61718 15349 ft 263 kts 266°
2026-05-09 01:47 43.16880 -77.64195 15173 ft 263 kts 267°
2026-05-09 01:47 43.16709 -77.66688 14998 ft 262 kts 266°
2026-05-09 01:47 43.16537 -77.69173 14825 ft 263 kts 266°
2026-05-09 01:47 43.16365 -77.71667 14647 ft 264 kts 266°
2026-05-09 01:48 43.16191 -77.74172 14470 ft 264 kts 266°
2026-05-09 01:48 43.16016 -77.76680 14290 ft 264 kts 266°
2026-05-09 01:48 43.15842 -77.79175 14115 ft 264 kts 266°
2026-05-09 01:48 43.15667 -77.81670 13940 ft 264 kts 266°
2026-05-09 01:49 43.15491 -77.84184 13770 ft 264 kts 266°
2026-05-09 01:49 43.15315 -77.86672 13602 ft 264 kts 266°
2026-05-09 01:49 43.15138 -77.89188 13436 ft 265 kts 266°
2026-05-09 01:49 43.14960 -77.91688 13239 ft 267 kts 266°
2026-05-09 01:50 43.14781 -77.94218 12850 ft 272 kts 266°
2026-05-09 01:50 43.14596 -77.96757 12389 ft 263 kts 265°
2026-05-09 01:50 43.14416 -77.99183 11904 ft 254 kts 265°
2026-05-09 01:50 43.14244 -78.01518 11515 ft 244 kts 266°
2026-05-09 01:51 43.14077 -78.03785 11105 ft 237 kts 266°
2026-05-09 01:51 43.13916 -78.05983 10675 ft 230 kts 266°
2026-05-09 01:51 43.13758 -78.08142 10291 ft 222 kts 266°
2026-05-09 01:51 43.13607 -78.10188 9921 ft 215 kts 266°
2026-05-09 01:52 43.13460 -78.12183 9587 ft 208 kts 266°
2026-05-09 01:52 43.13318 -78.14111 9229 ft 201 kts 266°
2026-05-09 01:52 43.13180 -78.15962 8870 ft 193 kts 266°
2026-05-09 01:52 43.13048 -78.17750 8508 ft 183 kts 266°
2026-05-09 01:53 43.12923 -78.19463 8192 ft 180 kts 266°
2026-05-09 01:53 43.12803 -78.21152 7915 ft 178 kts 266°
2026-05-09 01:53 43.12681 -78.22830 7622 ft 178 kts 266°
2026-05-09 01:53 43.12559 -78.24508 7312 ft 178 kts 266°
2026-05-09 01:54 43.12436 -78.26190 6999 ft 178 kts 266°
2026-05-09 01:54 43.12312 -78.27877 6679 ft 178 kts 266°
2026-05-09 01:54 43.12188 -78.29553 6372 ft 177 kts 266°
2026-05-09 01:54 43.12063 -78.31226 6070 ft 177 kts 265°
2026-05-09 01:55 43.11874 -78.32856 5889 ft 169 kts 261°
2026-05-09 01:55 43.11651 -78.34373 5733 ft 160 kts 261°
2026-05-09 01:55 43.11436 -78.35848 5617 ft 159 kts 261°
2026-05-09 01:55 43.11220 -78.37357 5473 ft 162 kts 261°
2026-05-09 01:56 43.10999 -78.38896 5322 ft 167 kts 261°
2026-05-09 01:56 43.10773 -78.40444 5181 ft 168 kts 260°
2026-05-09 01:56 43.10543 -78.42022 5032 ft 170 kts 260°
2026-05-09 01:56 43.10312 -78.43601 4893 ft 171 kts 260°
2026-05-09 01:57 43.10074 -78.45226 4743 ft 173 kts 260°
2026-05-09 01:57 43.09838 -78.46831 4583 ft 173 kts 259°
2026-05-09 01:57 43.09601 -78.48439 4430 ft 171 kts 259°
2026-05-09 01:57 43.09369 -78.49999 4278 ft 165 kts 259°
2026-05-09 01:58 43.09144 -78.51510 4126 ft 157 kts 259°
2026-05-09 01:58 43.08931 -78.52921 3990 ft 148 kts 256°
2026-05-09 01:58 43.08521 -78.54188 3787 ft 144 kts 236°
2026-05-09 01:58 43.07830 -78.55193 3583 ft 146 kts 220°
2026-05-09 01:59 43.07020 -78.56054 3405 ft 147 kts 221°
2026-05-09 01:59 43.06250 -78.56966 3231 ft 147 kts 224°
2026-05-09 01:59 43.05511 -78.57919 3065 ft 146 kts 225°
2026-05-09 01:59 43.04791 -78.58852 2945 ft 137 kts 225°
2026-05-09 02:00 43.04113 -78.59741 2800 ft 135 kts 225°
2026-05-09 02:00 43.03446 -78.60622 2661 ft 134 kts 225°
2026-05-09 02:00 43.02771 -78.61509 2529 ft 134 kts 225°
2026-05-09 02:00 43.02092 -78.62403 2411 ft 134 kts 225°
2026-05-09 02:01 43.01424 -78.63281 2296 ft 134 kts 224°
2026-05-09 02:01 43.00751 -78.64164 2183 ft 134 kts 224°
2026-05-09 02:01 43.00081 -78.65044 2064 ft 134 kts 224°
2026-05-09 02:01 42.99409 -78.65926 1947 ft 133 kts 224°
2026-05-09 02:02 42.98739 -78.66806 1833 ft 133 kts 224°
2026-05-09 02:02 42.98054 -78.67703 1658 ft 137 kts 224°
2026-05-09 02:02 42.97374 -78.68593 1459 ft 134 kts 223°
2026-05-09 02:02 42.96716 -78.69458 1293 ft 127 kts 224°
2026-05-09 02:03 42.96096 -78.70270 1152 ft 127 kts 224°
2026-05-09 02:03 42.95450 -78.71116 959 ft 128 kts 223°
2026-05-09 02:03 42.94807 -78.71966 774 ft 128 kts 223°
2026-05-09 02:03 42.94228 -78.72726 708 ft 83 kts 224°
2026-05-09 02:04 42.94053 -78.72953 709 ft 9 kts 222°
2026-05-09 02:04 42.93993 -78.73027 709 ft 21 kts 223°
2026-05-09 02:04 42.93869 -78.73192 709 ft 18 kts 224°
2026-05-09 02:04 42.93760 -78.73229 708 ft 21 kts 138°
2026-05-09 02:05 42.93686 -78.73173 706 ft 10 kts 159°
2026-05-09 02:05 42.93629 -78.73132 704 ft 11 kts 143°
2026-05-09 02:05 42.93605 -78.73098 703 ft 0 kts 130°
2026-05-09 02:05 42.93604 -78.73097 703 ft 0 kts 130°